2019-038Y (44408 NORAD) Tracking and Keplerian Element Data

This shows tracking and keplerian element data for the satellite.

Feedback or suggestion? Click here.




ElementValue
Catalog44408
Name2019-038Y
Epoch Orbit232
Epoch Day201.85385836
Epoch Year2019
RAAN163.4987
Inclination97.4903
Eccentricity0.0023067
Argument of Perigee192.8635
Mean Anonmoly167.201
Mean Motion15.11852584
Decay Rate1.5E-06
L11 44408U 19038Y 19201.85385836 .00000150 00000-0 12536-4 0 9997
L22 44408 97.4903 163.4987 0023067 192.8635 167.2010 15.11852584 2328

Live tracking and technical data element details for 2019-038Y (NORAD 44408). 2019-038Y can be tracked NOW for your location showing map with azimuth and elevation plus other details from your city location.

Track the satellite on the map from your city or location and see movement details for azimuth, elevation, latitude, longitude, range, height, and movement on the map or in text.







IsCatalogInMostPopularTable: catalog: 44408, numindb: 5
Update: records affected: 1



GetName: 44408 2019-038Y

Hit Count: updated at: Sun, 21 Jul 2019 21:29:49 GMT